Track COSMOS 1750 now! 10-day predictions COSMOS 1750 is classified as:
1 16760U 86042C 21108.46774708 -.00000027 00000-0 -67107-4 0 9991 2 16760 74.0148 114.2021 0040054 205.4667 268.0821 12.56125382598813